BKB1 K88M-CYXC

Flight info

Callsign BKB1
Flight time N/A
Altitude 14000
Route ANTAK
Aircraft PC12/L-SDFGRWY/S

Departure

Time N/A
Airport K88M

Arrival

Time 2026-04-26 19:29
Airport Cranbrook/Canadian Rockies International Airport (CYXC)
Time Latitude Longitude Altitude Speed Heading
2026-04-26 19:04 48.96713 -115.08199 2763 ft 0 kts 19°
2026-04-26 19:06 48.96721 -115.08194 2768 ft 5 kts 31°
2026-04-26 19:07 48.96705 -115.08135 2764 ft 8 kts 166°
2026-04-26 19:07 48.96650 -115.08158 2767 ft 9 kts 200°
2026-04-26 19:07 48.96586 -115.08196 2771 ft 11 kts 197°
2026-04-26 19:07 48.96498 -115.08245 2767 ft 16 kts 199°
2026-04-26 19:08 48.96394 -115.08304 2765 ft 12 kts 199°
2026-04-26 19:08 48.96324 -115.08294 2760 ft 11 kts 112°
2026-04-26 19:08 48.96335 -115.08228 2765 ft 0 kts 19°
2026-04-26 19:09 48.96395 -115.08193 2760 ft 28 kts 22°
2026-04-26 19:09 48.96714 -115.08011 2769 ft 69 kts 21°
2026-04-26 19:09 48.97268 -115.07704 2799 ft 94 kts 19°
2026-04-26 19:09 48.97904 -115.07403 3030 ft 99 kts 20°
2026-04-26 19:10 48.98566 -115.07092 3306 ft 100 kts 20°
2026-04-26 19:10 48.99237 -115.06765 3570 ft 102 kts 22°
2026-04-26 19:10 48.99909 -115.06400 3853 ft 103 kts 21°
2026-04-26 19:10 49.00614 -115.06019 4136 ft 112 kts 21°
2026-04-26 19:11 49.01400 -115.05743 4466 ft 124 kts 352°
2026-04-26 19:11 49.02110 -115.06585 4807 ft 137 kts 314°
2026-04-26 19:11 49.02647 -115.07846 5174 ft 147 kts 303°
2026-04-26 19:11 49.03129 -115.09290 5468 ft 160 kts 300°
2026-04-26 19:12 49.03642 -115.10850 5856 ft 169 kts 300°
2026-04-26 19:12 49.04157 -115.12495 6262 ft 175 kts 300°
2026-04-26 19:12 49.04680 -115.14192 6647 ft 179 kts 297°
2026-04-26 19:12 49.05234 -115.15921 7025 ft 183 kts 298°
2026-04-26 19:13 49.05803 -115.17680 7406 ft 187 kts 298°
2026-04-26 19:13 49.06351 -115.19493 7795 ft 189 kts 292°
2026-04-26 19:13 49.06821 -115.21383 8189 ft 192 kts 290°
2026-04-26 19:13 49.07274 -115.23306 8589 ft 193 kts 289°
2026-04-26 19:14 49.07728 -115.25206 8990 ft 194 kts 289°
2026-04-26 19:14 49.08198 -115.27134 9405 ft 194 kts 288°
2026-04-26 19:14 49.08680 -115.29064 9748 ft 198 kts 289°
2026-04-26 19:14 49.08846 -115.29731 9817 ft 202 kts 288°
2026-04-26 19:15 49.09770 -115.33165 9954 ft 219 kts 293°
2026-04-26 19:15 49.10527 -115.35233 9972 ft 227 kts 299°
2026-04-26 19:15 49.11411 -115.37285 9993 ft 234 kts 301°
2026-04-26 19:15 49.12366 -115.39331 10009 ft 240 kts 302°
2026-04-26 19:16 49.13363 -115.41385 10009 ft 242 kts 304°
2026-04-26 19:16 49.14381 -115.43452 10012 ft 244 kts 305°
2026-04-26 19:16 49.15401 -115.45518 10009 ft 244 kts 304°
2026-04-26 19:16 49.16423 -115.47595 10011 ft 243 kts 303°
2026-04-26 19:17 49.17433 -115.49645 10008 ft 240 kts 306°
2026-04-26 19:17 49.18438 -115.51683 10011 ft 239 kts 306°
2026-04-26 19:17 49.19435 -115.53711 10006 ft 238 kts 306°
2026-04-26 19:17 49.20425 -115.55728 10006 ft 237 kts 306°
2026-04-26 19:18 49.21409 -115.57743 10003 ft 235 kts 306°
2026-04-26 19:18 49.22384 -115.59747 10002 ft 234 kts 306°
2026-04-26 19:18 49.23358 -115.61746 10006 ft 234 kts 306°
2026-04-26 19:18 49.24328 -115.63738 10005 ft 233 kts 306°
2026-04-26 19:19 49.25291 -115.65715 10001 ft 231 kts 306°
2026-04-26 19:19 49.26249 -115.67679 10004 ft 229 kts 306°
2026-04-26 19:19 49.27200 -115.69631 10001 ft 228 kts 306°
2026-04-26 19:19 49.28150 -115.71574 9997 ft 227 kts 305°
2026-04-26 19:20 49.29090 -115.73512 9990 ft 226 kts 305°
2026-04-26 19:20 49.29392 -115.74136 9990 ft 226 kts 303°
2026-04-26 19:20 49.30952 -115.77358 9987 ft 224 kts 304°
2026-04-26 19:20 49.31881 -115.79279 9990 ft 226 kts 304°
2026-04-26 19:21 49.32814 -115.81209 9986 ft 229 kts 304°
2026-04-26 19:21 49.33774 -115.83162 9989 ft 230 kts 311°
2026-04-26 19:21 49.35027 -115.84662 9991 ft 231 kts 335°
2026-04-26 19:21 49.36577 -115.85227 9990 ft 231 kts
2026-04-26 19:22 49.38161 -115.84876 9989 ft 230 kts 12°
2026-04-26 19:22 49.39733 -115.84402 9984 ft 229 kts 14°
2026-04-26 19:22 49.41109 -115.83246 9980 ft 227 kts 39°
2026-04-26 19:22 49.42399 -115.81862 9979 ft 227 kts 29°
2026-04-26 19:23 49.43854 -115.80900 9925 ft 229 kts 19°
2026-04-26 19:23 49.45382 -115.80220 9509 ft 223 kts 14°
2026-04-26 19:23 49.46859 -115.79677 9094 ft 213 kts 14°
2026-04-26 19:23 49.48275 -115.79163 8683 ft 206 kts 14°
2026-04-26 19:24 49.49647 -115.78654 8280 ft 200 kts 15°
2026-04-26 19:24 49.50986 -115.78158 7881 ft 195 kts 15°
2026-04-26 19:24 49.52786 -115.75778 7109 ft 181 kts 91°
2026-04-26 19:25 49.52223 -115.74154 6740 ft 182 kts 144°
2026-04-26 19:25 49.51837 -115.73865 6614 ft 184 kts 160°
2026-04-26 19:25 49.50039 -115.75226 5978 ft 193 kts 246°
2026-04-26 19:25 49.50052 -115.77230 5575 ft 192 kts 296°
2026-04-26 19:26 49.51014 -115.78532 5194 ft 187 kts 346°
2026-04-26 19:26 49.52274 -115.78460 4794 ft 181 kts 12°
2026-04-26 19:26 49.53486 -115.78102 4531 ft 172 kts
2026-04-26 19:26 49.54644 -115.77997 4308 ft 162 kts 360°
2026-04-26 19:27 49.55738 -115.78031 4019 ft 150 kts 359°
2026-04-26 19:27 49.56735 -115.78040 3835 ft 137 kts 359°
2026-04-26 19:27 49.57657 -115.78071 3653 ft 127 kts 357°
2026-04-26 19:27 49.58503 -115.78112 3488 ft 113 kts 358°
2026-04-26 19:28 49.59010 -115.78136 3357 ft 107 kts 358°
2026-04-26 19:28 49.59733 -115.78167 3184 ft 103 kts 359°
2026-04-26 19:28 49.60425 -115.78186 3089 ft 93 kts
2026-04-26 19:28 49.60996 -115.78200 3059 ft 64 kts 359°
2026-04-26 19:29 49.61329 -115.78213 3049 ft 39 kts
2026-04-26 19:29 49.61580 -115.78216 3043 ft 25 kts 359°
2026-04-26 19:29 49.61567 -115.78343 3047 ft 14 kts 224°
2026-04-26 19:29 49.61512 -115.78427 3052 ft 8 kts 223°
2026-04-26 19:30 49.61470 -115.78486 3052 ft 11 kts 202°
2026-04-26 19:30 49.61374 -115.78495 3053 ft 15 kts 182°
2026-04-26 19:30 49.61274 -115.78496 3053 ft 13 kts 178°
2026-04-26 19:30 49.61253 -115.78500 3052 ft 0 kts 229°
2026-04-26 19:31 49.61253 -115.78521 3053 ft 5 kts 298°
2026-04-26 19:31 49.61244 -115.78587 3052 ft 8 kts 183°
2026-04-26 19:31 49.61190 -115.78584 3051 ft 7 kts 180°
2026-04-26 19:31 49.61142 -115.78587 3052 ft 7 kts 183°
2026-04-26 19:32 49.61084 -115.78587 3053 ft 9 kts 180°
2026-04-26 19:32 49.61037 -115.78552 3052 ft 8 kts 131°
2026-04-26 19:32 49.61016 -115.78541 3053 ft 0 kts 180°
2026-04-26 19:52 49.60998 -115.78528 3053 ft 7 kts 139°
2026-04-26 19:52 49.60952 -115.78464 3052 ft 10 kts 134°
2026-04-26 19:52 49.60906 -115.78392 3056 ft 8 kts 133°
2026-04-26 19:52 49.60874 -115.78340 3059 ft 8 kts 133°
2026-04-26 19:53 49.60824 -115.78253 3063 ft 12 kts 106°
2026-04-26 19:53 49.60910 -115.78199 3062 ft 28 kts 359°
2026-04-26 19:53 49.61280 -115.78207 3051 ft 77 kts 358°
2026-04-26 19:53 49.61947 -115.78207 3038 ft 112 kts 359°
2026-04-26 19:54 49.62776 -115.78265 3261 ft 120 kts 356°
2026-04-26 19:54 49.63635 -115.78598 3525 ft 135 kts 331°
2026-04-26 19:54 49.64367 -115.79597 3764 ft 152 kts 316°
2026-04-26 19:54 49.65214 -115.80920 3727 ft 184 kts 314°
2026-04-26 19:55 49.65898 -115.82607 3952 ft 194 kts 283°
2026-04-26 19:55 49.65734 -115.84701 4229 ft 202 kts 253°
2026-04-26 19:55 49.65242 -115.86763 4545 ft 207 kts 251°
2026-04-26 19:55 49.64950 -115.88954 4862 ft 212 kts 264°
2026-04-26 19:56 49.65011 -115.91247 5159 ft 216 kts 277°
2026-04-26 19:56 49.65332 -115.93517 5420 ft 218 kts 284°
2026-04-26 19:56 49.65792 -115.95761 5685 ft 220 kts 288°
2026-04-26 19:56 49.66399 -115.97924 5954 ft 220 kts 307°
2026-04-26 19:57 49.67681 -115.99126 6217 ft 220 kts 352°
2026-04-26 19:57 49.69119 -115.98670 6491 ft 217 kts 36°
2026-04-26 19:57 49.69954 -115.96795 6751 ft 212 kts 80°
2026-04-26 19:57 49.69676 -115.94665 7002 ft 210 kts 124°
2026-04-26 19:58 49.68467 -115.93483 7268 ft 213 kts 169°
2026-04-26 19:58 49.67042 -115.93996 7531 ft 218 kts 213°
2026-04-26 19:58 49.66219 -115.95918 7793 ft 221 kts 257°
2026-04-26 19:58 49.66352 -115.98255 8062 ft 220 kts 286°
2026-04-26 19:59 49.66864 -116.00488 8328 ft 221 kts 292°
2026-04-26 19:59 49.67450 -116.02687 8605 ft 220 kts 293°
2026-04-26 19:59 49.68034 -116.04849 8868 ft 217 kts 294°
2026-04-26 19:59 49.68604 -116.06992 9148 ft 214 kts 293°
2026-04-26 20:00 49.69158 -116.09113 9429 ft 212 kts 293°
2026-04-26 20:00 49.69703 -116.11218 9728 ft 211 kts 294°
2026-04-26 20:00 49.70248 -116.13321 9971 ft 213 kts 292°
2026-04-26 20:00 49.70801 -116.15491 10007 ft 221 kts 292°
2026-04-26 20:01 49.71370 -116.17744 10022 ft 228 kts 291°
2026-04-26 20:01 49.71951 -116.20045 10035 ft 232 kts 292°
2026-04-26 20:01 49.72545 -116.22383 10030 ft 234 kts 291°
2026-04-26 20:01 49.73133 -116.24700 10031 ft 236 kts 291°
2026-04-26 20:02 49.73733 -116.27073 10036 ft 237 kts 292°
2026-04-26 20:02 49.74334 -116.29444 10030 ft 237 kts 292°
2026-04-26 20:02 49.74940 -116.31817 10034 ft 238 kts 292°
2026-04-26 20:02 49.75349 -116.33430 10040 ft 238 kts 292°
2026-04-26 20:03 49.76153 -116.36604 10045 ft 240 kts 291°
2026-04-26 20:03 49.76762 -116.39013 10011 ft 241 kts 292°
2026-04-26 20:03 49.77372 -116.41430 10024 ft 242 kts 292°
2026-04-26 20:03 49.77985 -116.43868 10007 ft 243 kts 291°
2026-04-26 20:04 49.78595 -116.46299 9999 ft 242 kts 291°
2026-04-26 20:04 49.79204 -116.48725 10003 ft 242 kts 292°
2026-04-26 20:04 49.79816 -116.51157 10011 ft 243 kts 292°
2026-04-26 20:04 49.80424 -116.53579 10002 ft 241 kts 291°
2026-04-26 20:05 49.81031 -116.55997 10009 ft 241 kts 291°
2026-04-26 20:05 49.81638 -116.58415 9993 ft 240 kts 291°
2026-04-26 20:05 49.82241 -116.60825 9998 ft 240 kts 291°
2026-04-26 20:05 49.82846 -116.63245 9991 ft 241 kts 291°
2026-04-26 20:06 49.83451 -116.65669 9970 ft 241 kts 291°
2026-04-26 20:06 49.84057 -116.68099 9981 ft 242 kts 291°
2026-04-26 20:06 49.84663 -116.70534 9971 ft 242 kts 291°
2026-04-26 20:06 49.85269 -116.72968 9974 ft 242 kts 291°
2026-04-26 20:07 49.85879 -116.75430 9636 ft 253 kts 291°
2026-04-26 20:07 49.86523 -116.78043 9179 ft 258 kts 291°
2026-04-26 20:07 49.87141 -116.80517 8970 ft 234 kts 292°
2026-04-26 20:07 49.87700 -116.82739 8898 ft 208 kts 292°
2026-04-26 20:08 49.88192 -116.84702 8872 ft 184 kts 292°
2026-04-26 20:08 49.88857 -116.86184 8868 ft 160 kts 333°
2026-04-26 20:08 49.89935 -116.86362 8532 ft 160 kts
2026-04-26 20:08 49.91062 -116.86237 8140 ft 165 kts
2026-04-26 20:09 49.92227 -116.86093 7747 ft 170 kts
2026-04-26 20:09 49.93415 -116.85942 7361 ft 173 kts
2026-04-26 20:09 49.94621 -116.85932 6965 ft 175 kts 346°
2026-04-26 20:09 49.95503 -116.87178 6565 ft 180 kts 292°
2026-04-26 20:10 49.95399 -116.89056 6122 ft 182 kts 239°
2026-04-26 20:10 49.94375 -116.90092 5650 ft 181 kts 186°
2026-04-26 20:10 49.93210 -116.89528 5240 ft 179 kts 146°
2026-04-26 20:10 49.92236 -116.88446 4907 ft 168 kts 142°
2026-04-26 20:11 49.91349 -116.87371 4599 ft 157 kts 140°
2026-04-26 20:11 49.90387 -116.86769 4238 ft 153 kts 187°
2026-04-26 20:11 49.89594 -116.87730 3856 ft 151 kts 251°
2026-04-26 20:12 49.90141 -116.90666 3156 ft 141 kts 300°
2026-04-26 20:12 49.90393 -116.92089 2816 ft 134 kts 267°
2026-04-26 20:12 49.90362 -116.93363 2708 ft 107 kts 271°
2026-04-26 20:12 49.90391 -116.94514 2806 ft 109 kts 266°
2026-04-26 20:13 49.90037 -116.95567 3011 ft 115 kts 210°
2026-04-26 20:13 49.89302 -116.95467 3342 ft 115 kts 137°
2026-04-26 20:13 49.88990 -116.94355 3542 ft 121 kts 89°
2026-04-26 20:13 49.89017 -116.93058 3427 ft 123 kts 88°
2026-04-26 20:14 49.88964 -116.91651 3176 ft 134 kts 93°
2026-04-26 20:14 49.88861 -116.90244 3099 ft 129 kts 101°
2026-04-26 20:14 49.88654 -116.88917 2994 ft 128 kts 95°
2026-04-26 20:14 49.88934 -116.87719 2902 ft 121 kts 37°
2026-04-26 20:15 49.89734 -116.87631 2791 ft 125 kts 325°
2026-04-26 20:15 49.90033 -116.88889 2651 ft 128 kts 278°
2026-04-26 20:15 49.90149 -116.89789 2686 ft 126 kts 282°
2026-04-26 20:15 49.90306 -116.91578 2644 ft 123 kts 272°
2026-04-26 20:16 49.90330 -116.92433 2531 ft 113 kts 272°
2026-04-26 20:16 49.90360 -116.93550 2443 ft 92 kts 272°
2026-04-26 20:16 49.90371 -116.94157 2461 ft 26 kts 269°
2026-04-26 20:16 49.90377 -116.94419 2467 ft 17 kts 271°
2026-04-26 20:17 49.90392 -116.94526 2477 ft 8 kts 76°
2026-04-26 20:17 49.90385 -116.94400 2468 ft 13 kts 92°
2026-04-26 20:17 49.90381 -116.94272 2467 ft 11 kts 94°
2026-04-26 20:17 49.90375 -116.94144 2460 ft 13 kts 93°
2026-04-26 20:18 49.90372 -116.93993 2454 ft 15 kts 91°
2026-04-26 20:18 49.90367 -116.93832 2451 ft 14 kts 93°
2026-04-26 20:18 49.90363 -116.93713 2449 ft 13 kts 91°
2026-04-26 20:18 49.90360 -116.93567 2444 ft 15 kts 93°
2026-04-26 20:19 49.90356 -116.93398 2437 ft 16 kts 92°
2026-04-26 20:19 49.90350 -116.93223 2431 ft 16 kts 92°
2026-04-26 20:19 49.90346 -116.93069 2422 ft 12 kts 91°
2026-04-26 20:19 49.90379 -116.92968 2433 ft 7 kts 11°
2026-04-26 20:20 49.90412 -116.92960 2433 ft 5 kts
2026-04-26 20:20 49.90443 -116.92952 2433 ft 5 kts 46°
2026-04-26 20:20 49.90435 -116.92919 2432 ft 2 kts 186°
2026-04-26 20:20 49.90434 -116.92919 2432 ft 0 kts 186°